Location: Hammenstedt
(51.6955°N, 10.0517°E)
Time: 13:59:21
(UTC+00:00)

Daily predictions for brighter satellites

Satellite Brightness Start Highest point End
(mag) Time Altitude Azimuth Time Altitude Azimuth Time Altitude Azimuth
Cosmos 1656 4.4 15:43:37 10° NW 15:49:05 60° WSW 15:54:35 10° SSE
Meteor 1-20 Rocket 4.4 15:43:38 10° N 15:49:25 59° ENE 15:55:11 10° SSE
Cosmos 1340 Rocket 2.8 15:45:22 10° N 15:49:28 74° ENE 15:53:32 10° SSE
Cosmos 2360 Rocket 3.8 15:47:53 10° NNW 15:51:18 16° NNE 15:54:42 10° ENE
CZ-4C R/B 3.2 15:50:41 10° NNE 15:54:33 68° ESE 15:58:10 10° S
Cosmos 1842 Rocket 3.6 15:50:28 10° S 15:54:55 73° E 15:59:25 10° NNE
ERBS 2.9 15:52:04 10° W 15:55:07 40° NNW 15:58:11 10° NE
Cosmos 540 Rocket 4.3 15:51:26 10° SSE 15:55:56 32° ESE 16:00:27 10° NE
SL-16 R/B 4.1 15:51:24 10° N 15:56:42 30° NW 16:01:59 10° WSW
Lacrosse 5 rocket 1.5 15:54:50 10° WNW 15:58:34 50° NNE 16:02:30 10° E
ATLAS CENTAUR R/B 3.1 15:56:30 10° W 16:00:13 27° NNW 16:04:09 10° NNE
Cosmos 1092 Rocket 4.1 15:55:17 10° N 16:01:34 58° ENE 16:07:47 10° SSE
Cosmos 1666 4.0 16:00:16 10° NNE 16:03:01 19° ENE 16:05:46 10° ESE
USA 308 3.0 15:59:34 10° W 16:03:49 63° N 16:08:03 10° E
MOS 1 Rocket 3.9 16:00:10 10° N 16:05:08 62° WNW 16:09:47 10° SSW
COSMOS 2455 3.6 16:02:46 10° S 16:08:08 35° ESE 16:13:30 10° NE
Spot 1 4.4 16:05:55 10° NNE 16:10:36 61° ESE 16:15:32 10° S
Cosmos 2322 Rocket 3.3 16:08:44 10° NNW 16:13:21 24° NE 16:17:57 10° E
Cosmos 1697 Rocket 3.0 16:07:47 10° NNW 16:13:24 74° WSW 16:19:00 10° SSE
CZ-4C R/B 2.9 16:08:13 10° NW 16:15:06 72° NE 16:23:18 10° SE
Cosmos 1980 Rocket 2.2 16:12:59 10° NNW 16:18:42 72° ENE 16:24:19 10° SE
Cosmos 468 Rocket 4.0 16:14:15 10° SSW 16:19:24 76° ESE 16:24:39 10° NNE
Meteor 2-21 4.5 16:13:50 10° N 16:19:53 60° ENE 16:25:50 10° SSE
PSLV R/B 4.2 16:16:34 10° SE 16:19:58 36° ENE 16:23:28 10° N
NOAA 12 4.2 16:17:05 10° SSE 16:22:26 84° WSW 16:27:46 10° NNW
COSMO-SKYMED 1 4.1 16:22:41 14° ENE 16:24:15 17° E 16:27:04 10° SE
Cosmos 1627 Rocket 4.4 16:18:22 10° N 16:24:34 70° ENE 16:30:40 10° SSE
Cosmos 1898 Rocket 4.2 16:19:22 10° NNW 16:24:34 60° WSW 16:29:41 10° S
ATLAS CENTAUR R/B 3.2 16:15:40 10° SW 16:25:25 59° SE 16:28:48 16° ENE
Cosmos 2369 3.8 16:19:42 10° NNW 16:25:29 86° WSW 16:31:13 10° SSE
Meteor PRIRODA 4.1 16:22:44 10° S 16:26:20 63° WSW 16:29:57 10° NNW
Cosmos 1633 Rocket 3.6 16:24:21 10° N 16:28:22 34° ENE 16:32:22 10° SE
Cosmos 1933 3.3 16:24:37 10° S 16:28:38 66° E 16:32:39 10° NNE
USA 305 3.0 16:25:08 10° WNW 16:29:22 65° N 16:32:38 16° E
NOSS 2-2 (C) 4.5 16:25:34 10° NW 16:30:30 76° SW 16:37:28 10° SE
Cosmos 2279 Rocket 4.5 16:25:04 10° SSE 16:30:39 37° E 16:36:15 10° NNE
FengYun 1-2 T 4.3 16:25:24 10° SSE 16:30:59 85° WSW 16:36:34 10° NNW
Cosmos 2034 Rocket 4.1 16:25:12 10° SSW 16:31:21 79° W 16:37:34 10° N
CZ-4B R/B 3.4 16:27:37 10° S 16:31:33 60° WSW 16:35:18 10° NNW
Cosmos 1818 3.7 16:26:11 10° NW 16:31:37 57° NE 16:37:00 10° ESE
Cosmos 1812 3.6 16:28:58 10° SSE 16:32:19 29° E 16:34:50 15° NE
CORIOLIS 4.1 16:27:16 10° SSE 16:32:40 76° ENE 16:38:07 10° NNW
SL-16 R/B 2.8 16:27:39 10° NNW 16:32:52 35° NE 16:38:02 10° ESE
Cosmos 2237 Rocket 4.3 16:32:31 10° N 16:33:50 11° N 16:35:10 10° NNE
YAOGAN 1 4.0 16:36:55 17° NE 16:36:55 17° NE 16:39:25 10° NNE
AQUARIUS 4.1 16:32:41 10° SSE 16:37:10 79° ENE 16:41:41 10° NNW
USA 267 3.5 16:32:04 15° ENE 16:37:32 59° SE 16:43:58 10° SW
Cosmos 1151 Rocket 3.7 16:33:41 10° SSE 16:37:34 33° E 16:40:56 13° NNE
Cosmos 2082 Rocket 2.5 16:33:08 10° S 16:38:32 47° ESE 16:43:01 15° NE
Meteor 2-14 Rocket 4.4 16:35:01 10° N 16:41:10 83° E 16:47:15 10° SSE
SMAP 3.1 16:37:21 10° SSE 16:42:01 82° WSW 16:46:43 10° NNW
Meteor 1-14 Rocket 4.3 16:36:54 10° N 16:42:42 62° ENE 16:48:34 10° SSE
Cosmos 2333 Rocket 3.6 16:43:33 10° NNW 16:47:41 20° NNE 16:49:04 18° NE
ARGOS 3.4 16:43:33 10° SE 16:48:38 44° ENE 16:53:44 10° N
MOS 1-B 4.3 16:43:01 10° SSE 16:48:45 69° ENE 16:54:30 10° NNW
Cosmos 2278 3.7 16:43:00 10° NNW 16:48:46 85° ENE 16:54:28 10° SSE
Cosmos 1763 Rocket 3.8 16:44:10 10° SW 16:49:12 63° WNW 16:54:21 10° NNE
Cosmos 2026 Rocket 4.0 16:43:03 10° N 16:49:13 84° W 16:55:17 10° S
Cosmos 1634 Rocket 4.0 16:43:49 10° S 16:50:08 74° E 16:56:28 10° NNE
CZ-4B DEB 4.2 16:46:30 10° SSE 16:52:01 89° WSW 16:57:33 10° NNW
GEOS 3 Rocket 4.1 16:49:28 20° E 16:52:38 40° NNE 16:57:26 10° NW
Cosmos 44 Rocket 3.2 16:48:46 10° NW 16:53:46 73° NE 16:58:33 10° SE
SeaSat 1 4.2 16:49:54 10° NNE 16:53:57 26° NW 16:58:01 10° W
SL-16 R/B 4.4 16:52:51 10° NNW 16:54:08 11° N 16:55:26 10° N
Cosmos 2150 Rocket 4.2 16:50:26 10° NNW 16:55:25 46° ENE 17:00:26 10° SE
Cosmos 1666 Rocket 3.5 16:51:42 10° N 16:56:10 73° E 17:00:33 10° SSE
Cosmos 1833 Rocket 2.9 16:50:36 10° SW 16:56:12 72° WNW 17:01:21 13° NNE
MOS 1-B Rocket 4.2 16:51:20 10° NNE 16:57:07 52° E 17:03:38 10° S
CZ-2C R/B 4.5 16:52:46 10° SSW 16:57:15 37° W 17:01:41 10° NNW
Cosmos 841 Rocket 3.4 16:52:20 10° SSW 16:57:29 77° ESE 17:01:46 15° NNE
Okean O Rocket 1.9 16:54:24 10° SE 16:58:39 45° ENE 17:02:55 10° N
Cosmos 1470 Rocket 3.9 16:55:15 10° N 16:59:30 42° ENE 17:03:45 10° SE
Cosmos 1328 Rocket 4.0 16:57:03 10° SSE 17:01:12 40° E 17:03:23 24° NE
USA 306 2.8 16:57:24 10° WNW 17:01:40 73° NNE 17:03:36 31° E
H-2A R/B 1.9 16:57:06 10° SSE 17:02:14 81° ENE 17:07:15 10° NNW
Cosmos 1939 Rocket 4.1 16:59:40 10° S 17:03:36 44° W 17:07:31 10° NNW
Cosmos 2219 Rocket 3.6 17:00:15 10° NNW 17:04:19 19° NNE 17:04:47 19° NE
NOSS 3-4 (A) 4.4 16:58:30 10° NW 17:04:22 35° NNE 17:07:33 24° ENE
NOSS 3-4 (C) 4.4 16:58:36 10° NW 17:04:27 35° NNE 17:07:38 24° ENE
ISS -1.5 17:01:51 10° W 17:04:39 24° SSW 17:07:26 10° SSE
COSMOS 2406 3.3 16:59:36 10° SW 17:05:22 78° WNW 17:10:10 15° NNE
EP 1 4.3 17:03:22 10° SW 17:06:27 89° WNW 17:06:51 61° NE
CZ-2C R/B 2.9 17:02:59 17° NNE 17:06:46 43° E 17:11:40 10° S
ATLAS 2AS CENTAUR R/B 3.8 17:00:05 10° WNW 17:06:52 33° N 17:10:37 21° NE
Meteor 2-21 Rocket 4.4 17:00:51 10° NNW 17:07:01 86° W 17:13:05 10° S
Cosmos 1125 Rocket 3.6 17:02:35 10° NNW 17:07:44 52° ENE 17:12:52 10° SE
Cosmos 1500 4.1 17:06:02 10° NNW 17:09:40 48° W 17:13:15 10° S
SKYMED 2 3.8 17:11:18 33° NE 17:12:43 44° E 17:16:52 10° S
USA 234 3.8 17:06:41 10° SE 17:13:07 59° SW 17:19:35 10° WNW
Sich 1 4.4 17:13:10 10° NNW 17:17:13 41° W 17:21:15 10° SSW
Cosmos 1782 3.4 17:13:48 10° SSW 17:17:44 57° WNW 17:21:41 10° N
Cosmos 1655 Rocket 4.0 17:11:32 10° N 17:17:53 60° ENE 17:24:10 10° SSE
CZ-2D R/B 3.8 17:15:09 10° S 17:18:55 59° WSW 17:22:44 10° NNW
CZ-4B R/B 3.1 17:15:49 10° SSE 17:21:14 89° ENE 17:26:35 10° NNW
USA 307 2.8 17:17:02 10° WNW 17:21:18 79° NNE 17:22:25 48° E
Cosmos 2180 Rocket 4.4 17:17:30 10° S 17:23:46 67° E 17:29:59 10° NNE
Meteor 2-6 Rocket 4.1 17:18:19 10° S 17:23:57 64° E 17:28:31 15° NNE
ATLAS 5 CENTAUR R/B 2.0 17:17:34 10° NW 17:25:29 85° NE 17:26:27 46° ESE
SJ-11-01 4.2 17:20:47 10° SSE 17:25:32 80° ENE 17:30:18 10° NNW
deb Chang Zheng 4 3.6 17:27:02 10° SSE 17:31:20 80° WSW 17:35:41 10° NNW
ERBS 3.6 17:28:37 10° WNW 17:30:53 28° NNW 17:30:53 28° NNW
Cosmos 2237 4.3 17:27:33 10° NNW 17:33:11 55° NE 17:34:57 39° ESE
Cosmos 2360 Rocket 2.4 17:31:22 10° NNW 17:36:50 45° NE 17:37:21 44° ENE
Cosmos 540 Rocket 4.4 17:32:30 10° SW 17:37:23 45° WNW 17:41:13 16° N
Lacrosse 5 rocket 2.0 17:33:54 10° WNW 17:37:43 50° SW 17:39:14 32° SSE
Cosmos 1666 3.9 17:35:13 10° NNW 17:38:44 41° W 17:42:14 10° SSW
ATLAS CENTAUR R/B 3.6 17:37:34 10° NW 17:40:32 17° N 17:41:01 16° N
USA 308 2.7 17:39:37 10° WNW 17:43:54 89° SSW 17:44:08 80° ESE
Cosmos 1515 Rocket 4.0 17:41:24 10° S 17:44:48 48° SSE 17:44:48 48° SSE
Meteor 1-11 Rocket 3.6 17:45:54 10° NNW 17:51:33 86° ENE 17:57:18 10° SSE
Meteor 1-10 Rocket 4.1 17:47:42 10° S 17:53:27 79° E 17:56:15 32° NNE
COSMOS 2428 4.0 17:48:36 10° NNW 17:52:06 25° NNE 17:52:06 25° NNE
COSMOS 2455 3.3 17:47:53 10° SW 17:53:50 59° NW 17:56:40 31° NNE
CZ-4 R/B 3.7 17:59:18 15° N 17:59:18 15° N 18:00:00 10° NNW
Cosmos 2322 Rocket 2.1 17:52:28 10° NNW 17:58:13 87° ENE 18:00:16 42° SSE
Cosmos 1814 Rocket 4.4 17:53:32 10° SW 17:58:41 59° WNW 18:00:57 32° N
Cosmos 921 Rocket 3.3 17:54:36 10° SSW 17:57:55 55° SSW 17:57:55 55° SSW
Cosmos 1570 Rocket 4.3 17:54:33 10° SW 17:59:46 66° WNW 18:01:47 37° N
SL-08 RB Rocket 3.9 17:56:04 10° S 18:00:42 71° WSW 18:05:19 10° NNW
COSMO-SKYMED 1 2.8 17:59:55 50° NNW 18:00:51 66° WNW 18:05:09 10° SSW
CZ-4C R/B 4.2 17:56:54 10° NW 18:03:37 41° WSW 18:11:19 10° S
Cosmos 1356 Rocket 4.0 18:00:45 10° NNW 18:04:07 53° NW 18:04:07 53° NW
USA 305 3.5 18:05:05 10° WNW 18:08:38 56° WSW 18:08:38 56° WSW
Meteor 2-15 Rocket 4.3 18:04:21 10° S 18:10:30 90° E 18:14:07 26° N
YAOGAN 1 3.8 18:14:04 33° NNW 18:14:04 33° NNW 18:16:31 10° NNW
Cosmos 2266 Rocket 4.5 18:10:38 10° NNW 18:16:56 62° W 18:23:13 10° S
SL-16 R/B 2.8 18:11:42 10° NW 18:17:16 56° WSW 18:21:04 20° S
Cosmos 2237 Rocket 4.1 18:16:08 10° NNW 18:17:59 16° N 18:17:59 16° N
USA 267 3.3 18:19:25 57° NE 18:20:43 71° NNW 18:27:13 10° W
Cosmos 2082 Rocket 3.3 18:17:26 10° WSW 18:22:45 40° NW 18:24:53 29° N
GEOS 3 Rocket 3.8 18:30:35 66° SW 18:30:35 66° SW 18:35:42 10° NW
Cosmos 2333 Rocket 3.1 18:27:26 10° NNW 18:31:05 38° N 18:31:05 38° N
Okean O Rocket 3.8 18:31:30 10° SSW 18:35:11 25° W 18:38:55 10° NW
SL-16 R/B 4.5 18:37:39 10° NNW 18:38:38 12° N 18:38:38 12° N
CZ-2C R/B 4.0 18:44:29 22° NNW 18:46:58 34° WNW 18:51:34 10° SW
Cosmos 2219 Rocket 3.6 18:43:46 10° NNW 18:46:30 29° NNW 18:46:30 29° NNW
ATLAS CENTAUR R/B 4.2 18:51:16 10° W 18:54:28 25° WNW 18:54:28 25° WNW
NOSS 3-4 (A) 4.0 18:49:32 10° NW 18:55:00 60° NNW 18:55:00 60° NNW
NOSS 3-4 (C) 4.0 18:49:38 10° NW 18:55:05 59° NNW 18:55:05 59° NNW
ATLAS 2AS CENTAUR R/B 3.5 18:52:20 10° NW 18:58:02 42° N 18:58:02 42° N
Cosmos 2360 Rocket 3.7 19:15:33 10° NW 19:19:09 32° WNW 19:19:09 32° WNW
Cosmos 2322 Rocket 4.5 19:37:41 10° WNW 19:41:32 19° W 19:42:10 19° WSW
